[Date Prev][Date Next][Thread Prev][Thread Next] - [Date Index][Thread Index][Author Index]

2 Line ISS Keps 4-25



ISS
1 25544U 98067A   04116.28457889  .00029077  00000-0  25251-3 0  6465
2 25544  51.6280 235.3954 0011200  66.7247  22.5625 15.68767776310018


----
Via the sarex mailing list at AMSAT.ORG courtesy of AMSAT-NA.
To unsubscribe, send "unsubscribe sarex" to Majordomo@amsat.org



AMSAT Top AMSAT Home